,Portable 2,Portable 2
,PM10_1HR,PM10_1HR
,,
Date,Value,Null Code
01-Mar-2017 00:00,5.8,
01-Mar-2017 01:00,5.1,
01-Mar-2017 02:00,5,
01-Mar-2017 03:00,5.6,
01-Mar-2017 04:00,7.7,
01-Mar-2017 05:00,6,
01-Mar-2017 06:00,5.5,
01-Mar-2017 07:00,7.3,
01-Mar-2017 08:00,7.4,
01-Mar-2017 09:00,4.9,
01-Mar-2017 10:00,3.4,
01-Mar-2017 11:00,3.1,
01-Mar-2017 12:00,2.7,
01-Mar-2017 13:00,9.3,
01-Mar-2017 14:00,5.5,
01-Mar-2017 15:00,5.3,
01-Mar-2017 16:00,6.5,
01-Mar-2017 17:00,10.4,
01-Mar-2017 18:00,21.3,
01-Mar-2017 19:00,15.3,
01-Mar-2017 20:00,9.6,
01-Mar-2017 21:00,11.8,
01-Mar-2017 22:00,11.8,
01-Mar-2017 23:00,6.5,
02-Mar-2017 00:00,6.1,
02-Mar-2017 01:00,5.5,
02-Mar-2017 02:00,5.3,
02-Mar-2017 03:00,4.7,
02-Mar-2017 04:00,5.9,
02-Mar-2017 05:00,5.5,
02-Mar-2017 06:00,5,
02-Mar-2017 07:00,7.8,
02-Mar-2017 08:00,5.3,
02-Mar-2017 09:00,5.8,
02-Mar-2017 10:00,3.6,
02-Mar-2017 11:00,3.1,
02-Mar-2017 12:00,4.4,
02-Mar-2017 13:00,4.6,
02-Mar-2017 14:00,3.9,
02-Mar-2017 15:00,,BA
02-Mar-2017 16:00,,BA
02-Mar-2017 17:00,26.5,
02-Mar-2017 18:00,52.2,
02-Mar-2017 19:00,11,
02-Mar-2017 20:00,6.3,
02-Mar-2017 21:00,6.5,
02-Mar-2017 22:00,7.1,
02-Mar-2017 23:00,7.4,
03-Mar-2017 00:00,4.2,
03-Mar-2017 01:00,3.6,
03-Mar-2017 02:00,2.5,
03-Mar-2017 03:00,2.5,
03-Mar-2017 04:00,4.2,
03-Mar-2017 05:00,3.4,
03-Mar-2017 06:00,3.3,
03-Mar-2017 07:00,3,
03-Mar-2017 08:00,2.2,
03-Mar-2017 09:00,5.1,
03-Mar-2017 10:00,2.8,
03-Mar-2017 11:00,5,
03-Mar-2017 12:00,2.8,
03-Mar-2017 13:00,6.8,
03-Mar-2017 14:00,3.9,
03-Mar-2017 15:00,4.8,
03-Mar-2017 16:00,6,
03-Mar-2017 17:00,47.6,
03-Mar-2017 18:00,29.5,
03-Mar-2017 19:00,14.8,
03-Mar-2017 20:00,10.1,
03-Mar-2017 21:00,13.5,
03-Mar-2017 22:00,19,
03-Mar-2017 23:00,10.5,
04-Mar-2017 00:00,8.5,
04-Mar-2017 01:00,7.3,
04-Mar-2017 02:00,5.7,
04-Mar-2017 03:00,5.8,
04-Mar-2017 04:00,4.7,
04-Mar-2017 05:00,4.9,
04-Mar-2017 06:00,6.4,
04-Mar-2017 07:00,6.8,
04-Mar-2017 08:00,6.6,
04-Mar-2017 09:00,3.4,
04-Mar-2017 10:00,5.7,
04-Mar-2017 11:00,5.7,
04-Mar-2017 12:00,4.8,
04-Mar-2017 13:00,4.2,
04-Mar-2017 14:00,9.8,
04-Mar-2017 15:00,11.5,
04-Mar-2017 16:00,9.4,
04-Mar-2017 17:00,12.9,
04-Mar-2017 18:00,14.2,
04-Mar-2017 19:00,13.5,
04-Mar-2017 20:00,11,
04-Mar-2017 21:00,7.7,
04-Mar-2017 22:00,10.4,
04-Mar-2017 23:00,10.6,
05-Mar-2017 00:00,20.2,
05-Mar-2017 01:00,14.5,
05-Mar-2017 02:00,11,
05-Mar-2017 03:00,10,
05-Mar-2017 04:00,9.2,
05-Mar-2017 05:00,6.8,
05-Mar-2017 06:00,8,
05-Mar-2017 07:00,8.1,
05-Mar-2017 08:00,6.7,
05-Mar-2017 09:00,7.5,
05-Mar-2017 10:00,7.7,
05-Mar-2017 11:00,3.7,
05-Mar-2017 12:00,6.3,
05-Mar-2017 13:00,9.6,
05-Mar-2017 14:00,4.7,
05-Mar-2017 15:00,10.3,
05-Mar-2017 16:00,4.4,
05-Mar-2017 17:00,7.4,
05-Mar-2017 18:00,7,
05-Mar-2017 19:00,7.9,
05-Mar-2017 20:00,6.3,
05-Mar-2017 21:00,4,
05-Mar-2017 22:00,3.9,
05-Mar-2017 23:00,4,
06-Mar-2017 00:00,4.5,
06-Mar-2017 01:00,4.1,
06-Mar-2017 02:00,4.2,
06-Mar-2017 03:00,4.6,
06-Mar-2017 04:00,4.1,
06-Mar-2017 05:00,5.9,
06-Mar-2017 06:00,4.1,
06-Mar-2017 07:00,5.9,
06-Mar-2017 08:00,3,
06-Mar-2017 09:00,4.1,
06-Mar-2017 10:00,2.8,
06-Mar-2017 11:00,3.3,
06-Mar-2017 12:00,3.7,
06-Mar-2017 13:00,4.8,
06-Mar-2017 14:00,4.8,
06-Mar-2017 15:00,5.5,
06-Mar-2017 16:00,6.4,
06-Mar-2017 17:00,26.8,
06-Mar-2017 18:00,21.4,
06-Mar-2017 19:00,11.1,
06-Mar-2017 20:00,12.1,
06-Mar-2017 21:00,12.6,
06-Mar-2017 22:00,9.7,
06-Mar-2017 23:00,7.1,
07-Mar-2017 00:00,7.2,
07-Mar-2017 01:00,6.8,
07-Mar-2017 02:00,5.6,
07-Mar-2017 03:00,5.5,
07-Mar-2017 04:00,6.5,
07-Mar-2017 05:00,5.9,
07-Mar-2017 06:00,6.4,
07-Mar-2017 07:00,-9.6,
07-Mar-2017 08:00,7.7,
07-Mar-2017 09:00,6.2,
07-Mar-2017 10:00,4.4,
07-Mar-2017 11:00,7.8,
07-Mar-2017 12:00,5.4,
07-Mar-2017 13:00,11,
07-Mar-2017 14:00,7.3,
07-Mar-2017 15:00,7.2,
07-Mar-2017 16:00,8.1,
07-Mar-2017 17:00,29,
07-Mar-2017 18:00,27.4,
07-Mar-2017 19:00,20.1,
07-Mar-2017 20:00,12.7,
07-Mar-2017 21:00,16.4,
07-Mar-2017 22:00,12.4,
07-Mar-2017 23:00,10.3,
08-Mar-2017 00:00,8.8,
08-Mar-2017 01:00,7.6,
08-Mar-2017 02:00,6.1,
08-Mar-2017 03:00,5.8,
08-Mar-2017 04:00,6.5,
08-Mar-2017 05:00,6.1,
08-Mar-2017 06:00,5.8,
08-Mar-2017 07:00,9.7,
08-Mar-2017 08:00,9.3,
08-Mar-2017 09:00,4.9,
08-Mar-2017 10:00,4.5,
08-Mar-2017 11:00,7.7,
08-Mar-2017 12:00,5.2,
08-Mar-2017 13:00,5.3,
08-Mar-2017 14:00,6,
08-Mar-2017 15:00,6.9,
08-Mar-2017 16:00,9.2,
08-Mar-2017 17:00,35.2,
08-Mar-2017 18:00,31.7,
08-Mar-2017 19:00,10.6,
08-Mar-2017 20:00,8,
08-Mar-2017 21:00,9.2,
08-Mar-2017 22:00,10.7,
08-Mar-2017 23:00,6.9,
09-Mar-2017 00:00,6.9,
09-Mar-2017 01:00,6.1,
09-Mar-2017 02:00,5.5,
09-Mar-2017 03:00,4.6,
09-Mar-2017 04:00,6,
09-Mar-2017 05:00,5.4,
09-Mar-2017 06:00,6.4,
09-Mar-2017 07:00,5,
09-Mar-2017 08:00,6.3,
09-Mar-2017 09:00,5.3,
09-Mar-2017 10:00,4.7,
09-Mar-2017 11:00,4.9,
09-Mar-2017 12:00,6.1,
09-Mar-2017 13:00,6.2,
09-Mar-2017 14:00,6.1,
09-Mar-2017 15:00,7.5,
09-Mar-2017 16:00,11.4,
09-Mar-2017 17:00,17.1,
09-Mar-2017 18:00,37,
09-Mar-2017 19:00,12.7,
09-Mar-2017 20:00,10,
09-Mar-2017 21:00,8.8,
09-Mar-2017 22:00,12.9,
09-Mar-2017 23:00,10.9,
10-Mar-2017 00:00,9.4,
10-Mar-2017 01:00,8.4,
10-Mar-2017 02:00,7.1,
10-Mar-2017 03:00,7.9,
10-Mar-2017 04:00,6,
10-Mar-2017 05:00,7.1,
10-Mar-2017 06:00,7.4,
10-Mar-2017 07:00,7.8,
10-Mar-2017 08:00,8.7,
10-Mar-2017 09:00,12.7,
10-Mar-2017 10:00,5.8,
10-Mar-2017 11:00,5.7,
10-Mar-2017 12:00,3.8,
10-Mar-2017 13:00,6.3,
10-Mar-2017 14:00,5.6,
10-Mar-2017 15:00,6.6,
10-Mar-2017 16:00,7,
10-Mar-2017 17:00,23,
10-Mar-2017 18:00,12.8,
10-Mar-2017 19:00,12.6,
10-Mar-2017 20:00,13.4,
10-Mar-2017 21:00,8.7,
10-Mar-2017 22:00,9.3,
10-Mar-2017 23:00,12.2,
11-Mar-2017 00:00,7.4,
11-Mar-2017 01:00,6.1,
11-Mar-2017 02:00,10.6,
11-Mar-2017 03:00,7.1,
11-Mar-2017 04:00,6.4,
11-Mar-2017 05:00,5.5,
11-Mar-2017 06:00,6.2,
11-Mar-2017 07:00,6.9,
11-Mar-2017 08:00,5,
11-Mar-2017 09:00,6.1,
11-Mar-2017 10:00,4.9,
11-Mar-2017 11:00,5.5,
11-Mar-2017 12:00,4.7,
11-Mar-2017 13:00,5.5,
11-Mar-2017 14:00,6.8,
11-Mar-2017 15:00,6.2,
11-Mar-2017 16:00,7.9,
11-Mar-2017 17:00,10.1,
11-Mar-2017 18:00,16.6,
11-Mar-2017 19:00,13.9,
11-Mar-2017 20:00,19.3,
11-Mar-2017 21:00,16.5,
11-Mar-2017 22:00,10.3,
11-Mar-2017 23:00,9.8,
12-Mar-2017 00:00,8.3,
12-Mar-2017 01:00,6.5,
12-Mar-2017 02:00,6.5,
12-Mar-2017 03:00,6,
12-Mar-2017 04:00,7.1,
12-Mar-2017 05:00,6,
12-Mar-2017 06:00,7.4,
12-Mar-2017 07:00,8.4,
12-Mar-2017 08:00,5.8,
12-Mar-2017 09:00,3.9,
12-Mar-2017 10:00,4.5,
12-Mar-2017 11:00,4.4,
12-Mar-2017 12:00,4.6,
12-Mar-2017 13:00,5.9,
12-Mar-2017 14:00,6.1,
12-Mar-2017 15:00,6.6,
12-Mar-2017 16:00,6.6,
12-Mar-2017 17:00,10.5,
12-Mar-2017 18:00,17.4,
12-Mar-2017 19:00,14.7,
12-Mar-2017 20:00,14.2,
12-Mar-2017 21:00,13.9,
12-Mar-2017 22:00,16.9,
12-Mar-2017 23:00,8.4,
13-Mar-2017 00:00,7.5,
13-Mar-2017 01:00,6.6,
13-Mar-2017 02:00,5.2,
13-Mar-2017 03:00,6.6,
13-Mar-2017 04:00,6.5,
13-Mar-2017 05:00,6.5,
13-Mar-2017 06:00,6.5,
13-Mar-2017 07:00,10.9,
13-Mar-2017 08:00,10.7,
13-Mar-2017 09:00,7.5,
13-Mar-2017 10:00,6.2,
13-Mar-2017 11:00,5.5,
13-Mar-2017 12:00,6.4,
13-Mar-2017 13:00,5.5,
13-Mar-2017 14:00,8.4,
13-Mar-2017 15:00,6.4,
13-Mar-2017 16:00,8.5,
13-Mar-2017 17:00,24.5,
13-Mar-2017 18:00,14.7,
13-Mar-2017 19:00,13.3,
13-Mar-2017 20:00,11.4,
13-Mar-2017 21:00,10.6,
13-Mar-2017 22:00,11.7,
13-Mar-2017 23:00,11.1,
14-Mar-2017 00:00,10.9,
14-Mar-2017 01:00,8.2,
14-Mar-2017 02:00,7.6,
14-Mar-2017 03:00,9.9,
14-Mar-2017 04:00,8.1,
14-Mar-2017 05:00,8,
14-Mar-2017 06:00,8.8,
14-Mar-2017 07:00,10,
14-Mar-2017 08:00,12.7,
14-Mar-2017 09:00,9.6,
14-Mar-2017 10:00,7,
14-Mar-2017 11:00,8.9,
14-Mar-2017 12:00,6.9,
14-Mar-2017 13:00,7.9,
14-Mar-2017 14:00,7.5,
14-Mar-2017 15:00,9.3,
14-Mar-2017 16:00,10.6,
14-Mar-2017 17:00,16.8,
14-Mar-2017 18:00,11.6,
14-Mar-2017 19:00,15.7,
14-Mar-2017 20:00,9.9,
14-Mar-2017 21:00,9.5,
14-Mar-2017 22:00,9.4,
14-Mar-2017 23:00,9.4,
15-Mar-2017 00:00,8.3,
15-Mar-2017 01:00,8.1,
15-Mar-2017 02:00,5.8,
15-Mar-2017 03:00,7.5,
15-Mar-2017 04:00,5.6,
15-Mar-2017 05:00,6.5,
15-Mar-2017 06:00,12.4,
15-Mar-2017 07:00,12.9,
15-Mar-2017 08:00,7.2,
15-Mar-2017 09:00,5.7,
15-Mar-2017 10:00,6.4,
15-Mar-2017 11:00,6.3,
15-Mar-2017 12:00,4.2,
15-Mar-2017 13:00,8.6,
15-Mar-2017 14:00,7.5,
15-Mar-2017 15:00,21.1,
15-Mar-2017 16:00,16.4,
15-Mar-2017 17:00,13.9,
15-Mar-2017 18:00,19.3,
15-Mar-2017 19:00,13.1,
15-Mar-2017 20:00,9.7,
15-Mar-2017 21:00,9.9,
15-Mar-2017 22:00,10,
15-Mar-2017 23:00,9,
16-Mar-2017 00:00,9.8,
16-Mar-2017 01:00,7.7,
16-Mar-2017 02:00,7.4,
16-Mar-2017 03:00,8.4,
16-Mar-2017 04:00,7.6,
16-Mar-2017 05:00,8.5,
16-Mar-2017 06:00,8.8,
16-Mar-2017 07:00,11.8,
16-Mar-2017 08:00,14.6,
16-Mar-2017 09:00,10.2,
16-Mar-2017 10:00,9.9,
16-Mar-2017 11:00,10.1,
16-Mar-2017 12:00,8.5,
16-Mar-2017 13:00,7.1,
16-Mar-2017 14:00,5.8,
16-Mar-2017 15:00,9.5,
16-Mar-2017 16:00,10.1,
16-Mar-2017 17:00,49.3,
16-Mar-2017 18:00,45.7,
16-Mar-2017 19:00,13.8,
16-Mar-2017 20:00,15.5,
16-Mar-2017 21:00,14.5,
16-Mar-2017 22:00,16,
16-Mar-2017 23:00,12.6,
17-Mar-2017 00:00,17.3,
17-Mar-2017 01:00,11.1,
17-Mar-2017 02:00,9.2,
17-Mar-2017 03:00,10.2,
17-Mar-2017 04:00,9.5,
17-Mar-2017 05:00,25.2,
17-Mar-2017 06:00,16,
17-Mar-2017 07:00,10.7,
17-Mar-2017 08:00,10.5,
17-Mar-2017 09:00,9.2,
17-Mar-2017 10:00,11,
17-Mar-2017 11:00,11,
17-Mar-2017 12:00,15.8,
17-Mar-2017 13:00,21,
17-Mar-2017 14:00,38,
17-Mar-2017 15:00,25.4,
17-Mar-2017 16:00,30.4,
17-Mar-2017 17:00,22.9,
17-Mar-2017 18:00,29.1,
17-Mar-2017 19:00,27.5,
17-Mar-2017 20:00,26.6,
17-Mar-2017 21:00,21.6,
17-Mar-2017 22:00,16.2,
17-Mar-2017 23:00,13.8,
18-Mar-2017 00:00,13.9,
18-Mar-2017 01:00,16.8,
18-Mar-2017 02:00,15.4,
18-Mar-2017 03:00,16.6,
18-Mar-2017 04:00,13.9,
18-Mar-2017 05:00,14.8,
18-Mar-2017 06:00,14.9,
18-Mar-2017 07:00,17.1,
18-Mar-2017 08:00,12,
18-Mar-2017 09:00,14,
18-Mar-2017 10:00,11.2,
18-Mar-2017 11:00,17.7,
18-Mar-2017 12:00,13.1,
18-Mar-2017 13:00,14.5,
18-Mar-2017 14:00,16.6,
18-Mar-2017 15:00,10.1,
18-Mar-2017 16:00,13.1,
18-Mar-2017 17:00,16.6,
18-Mar-2017 18:00,14.4,
18-Mar-2017 19:00,10.7,
18-Mar-2017 20:00,13.6,
18-Mar-2017 21:00,15.8,
18-Mar-2017 22:00,11.5,
18-Mar-2017 23:00,11,
19-Mar-2017 00:00,10.7,
19-Mar-2017 01:00,7.8,
19-Mar-2017 02:00,8.5,
19-Mar-2017 03:00,8.1,
19-Mar-2017 04:00,8.1,
19-Mar-2017 05:00,7.7,
19-Mar-2017 06:00,25.5,
19-Mar-2017 07:00,,AV
19-Mar-2017 08:00,,AV
19-Mar-2017 09:00,,AV
19-Mar-2017 10:00,8.2,
19-Mar-2017 11:00,27.8,
19-Mar-2017 12:00,18.6,
19-Mar-2017 13:00,20.8,
19-Mar-2017 14:00,17.3,
19-Mar-2017 15:00,38.5,
19-Mar-2017 16:00,55.2,
19-Mar-2017 17:00,27.6,
19-Mar-2017 18:00,11.6,
19-Mar-2017 19:00,8.4,
19-Mar-2017 20:00,10.2,
19-Mar-2017 21:00,9.1,
19-Mar-2017 22:00,8.5,
19-Mar-2017 23:00,8.9,
20-Mar-2017 00:00,7.8,
20-Mar-2017 01:00,8.3,
20-Mar-2017 02:00,8.7,
20-Mar-2017 03:00,6.5,
20-Mar-2017 04:00,7.7,
20-Mar-2017 05:00,9.3,
20-Mar-2017 06:00,9,
20-Mar-2017 07:00,8.4,
20-Mar-2017 08:00,10.3,
20-Mar-2017 09:00,30,
20-Mar-2017 10:00,38.5,
20-Mar-2017 11:00,27.5,
20-Mar-2017 12:00,36,
20-Mar-2017 13:00,37.8,
20-Mar-2017 14:00,32,
20-Mar-2017 15:00,13.1,
20-Mar-2017 16:00,9.7,
20-Mar-2017 17:00,12.9,
20-Mar-2017 18:00,14.3,
20-Mar-2017 19:00,14.6,
20-Mar-2017 20:00,9.1,
20-Mar-2017 21:00,6.8,
20-Mar-2017 22:00,7.4,
20-Mar-2017 23:00,8.1,
21-Mar-2017 00:00,7.7,
21-Mar-2017 01:00,8.3,
21-Mar-2017 02:00,8.3,
21-Mar-2017 03:00,7,
21-Mar-2017 04:00,7.7,
21-Mar-2017 05:00,8.6,
21-Mar-2017 06:00,8.2,
21-Mar-2017 07:00,25.4,
21-Mar-2017 08:00,31.7,
21-Mar-2017 09:00,42.7,
21-Mar-2017 10:00,49.5,
21-Mar-2017 11:00,24,
21-Mar-2017 12:00,12.4,
21-Mar-2017 13:00,5.9,
21-Mar-2017 14:00,4.4,
21-Mar-2017 15:00,1.7,
21-Mar-2017 16:00,4.5,
21-Mar-2017 17:00,4,
21-Mar-2017 18:00,2.6,
21-Mar-2017 19:00,3.8,
21-Mar-2017 20:00,2.1,
21-Mar-2017 21:00,4.6,
21-Mar-2017 22:00,4.4,
21-Mar-2017 23:00,4.4,
22-Mar-2017 00:00,4,
22-Mar-2017 01:00,3.8,
22-Mar-2017 02:00,3.3,
22-Mar-2017 03:00,4.6,
22-Mar-2017 04:00,3.9,
22-Mar-2017 05:00,4.6,
22-Mar-2017 06:00,5.8,
22-Mar-2017 07:00,6.6,
22-Mar-2017 08:00,2.8,
22-Mar-2017 09:00,3.6,
22-Mar-2017 10:00,3.2,
22-Mar-2017 11:00,6.5,
22-Mar-2017 12:00,6.1,
22-Mar-2017 13:00,11.8,
22-Mar-2017 14:00,15.7,
22-Mar-2017 15:00,5.3,
22-Mar-2017 16:00,6.1,
22-Mar-2017 17:00,9.9,
22-Mar-2017 18:00,8,
22-Mar-2017 19:00,5.7,
22-Mar-2017 20:00,5.7,
22-Mar-2017 21:00,6.7,
22-Mar-2017 22:00,6,
22-Mar-2017 23:00,5,
23-Mar-2017 00:00,4.2,
23-Mar-2017 01:00,4.9,
23-Mar-2017 02:00,4.3,
23-Mar-2017 03:00,5.8,
23-Mar-2017 04:00,4.7,
23-Mar-2017 05:00,4.9,
23-Mar-2017 06:00,6.3,
23-Mar-2017 07:00,4.4,
23-Mar-2017 08:00,5.5,
23-Mar-2017 09:00,3.8,
23-Mar-2017 10:00,2.9,
23-Mar-2017 11:00,6.3,
23-Mar-2017 12:00,5.9,
23-Mar-2017 13:00,4.6,
23-Mar-2017 14:00,,AX
23-Mar-2017 15:00,4.6,
23-Mar-2017 16:00,4.8,
23-Mar-2017 17:00,7.8,
23-Mar-2017 18:00,20.3,
23-Mar-2017 19:00,11.4,
23-Mar-2017 20:00,9.9,
23-Mar-2017 21:00,12.8,
23-Mar-2017 22:00,8.1,
23-Mar-2017 23:00,8.1,
24-Mar-2017 00:00,9.3,
24-Mar-2017 01:00,8,
24-Mar-2017 02:00,6.4,
24-Mar-2017 03:00,5.1,
24-Mar-2017 04:00,7.1,
24-Mar-2017 05:00,7.5,
24-Mar-2017 06:00,6.4,
24-Mar-2017 07:00,4.6,
24-Mar-2017 08:00,6,
24-Mar-2017 09:00,4.9,
24-Mar-2017 10:00,8.1,
24-Mar-2017 11:00,7.7,
24-Mar-2017 12:00,9.9,
24-Mar-2017 13:00,12.9,
24-Mar-2017 14:00,18.6,
24-Mar-2017 15:00,9.9,
24-Mar-2017 16:00,50.9,
24-Mar-2017 17:00,40.4,
24-Mar-2017 18:00,9.9,
24-Mar-2017 19:00,4.9,
24-Mar-2017 20:00,3.6,
24-Mar-2017 21:00,3.4,
24-Mar-2017 22:00,3.1,
24-Mar-2017 23:00,5.2,
25-Mar-2017 00:00,4.4,
25-Mar-2017 01:00,3.2,
25-Mar-2017 02:00,1,
25-Mar-2017 03:00,3,
25-Mar-2017 04:00,5.3,
25-Mar-2017 05:00,7,
25-Mar-2017 06:00,5.7,
25-Mar-2017 07:00,7.3,
25-Mar-2017 08:00,6.3,
25-Mar-2017 09:00,4,
25-Mar-2017 10:00,3.1,
25-Mar-2017 11:00,5.2,
25-Mar-2017 12:00,1.8,
25-Mar-2017 13:00,2.6,
25-Mar-2017 14:00,5.1,
25-Mar-2017 15:00,3.6,
25-Mar-2017 16:00,4.6,
25-Mar-2017 17:00,10.5,
25-Mar-2017 18:00,19.6,
25-Mar-2017 19:00,11.9,
25-Mar-2017 20:00,8.4,
25-Mar-2017 21:00,9.1,
25-Mar-2017 22:00,5.4,
25-Mar-2017 23:00,5.4,
26-Mar-2017 00:00,6,
26-Mar-2017 01:00,7,
26-Mar-2017 02:00,5,
26-Mar-2017 03:00,4.1,
26-Mar-2017 04:00,5,
26-Mar-2017 05:00,4.8,
26-Mar-2017 06:00,6.6,
26-Mar-2017 07:00,4.6,
26-Mar-2017 08:00,3.7,
26-Mar-2017 09:00,4.9,
26-Mar-2017 10:00,6.5,
26-Mar-2017 11:00,8.9,
26-Mar-2017 12:00,6.8,
26-Mar-2017 13:00,9.5,
26-Mar-2017 14:00,6.6,
26-Mar-2017 15:00,6.9,
26-Mar-2017 16:00,6.9,
26-Mar-2017 17:00,13.5,
26-Mar-2017 18:00,10.8,
26-Mar-2017 19:00,10,
26-Mar-2017 20:00,9.8,
26-Mar-2017 21:00,11.6,
26-Mar-2017 22:00,11.6,
26-Mar-2017 23:00,13.1,
27-Mar-2017 00:00,10.2,
27-Mar-2017 01:00,9.7,
27-Mar-2017 02:00,8.9,
27-Mar-2017 03:00,8.2,
27-Mar-2017 04:00,11.1,
27-Mar-2017 05:00,10,
27-Mar-2017 06:00,15.3,
27-Mar-2017 07:00,21.9,
27-Mar-2017 08:00,31.7,
27-Mar-2017 09:00,37.1,
27-Mar-2017 10:00,13.6,
27-Mar-2017 11:00,32,
27-Mar-2017 12:00,37.5,
27-Mar-2017 13:00,,BL
27-Mar-2017 14:00,24.4,
27-Mar-2017 15:00,38.8,
27-Mar-2017 16:00,103.5,
27-Mar-2017 17:00,117.6,
27-Mar-2017 18:00,42.4,
27-Mar-2017 19:00,17.5,
27-Mar-2017 20:00,12.2,
27-Mar-2017 21:00,9.1,
27-Mar-2017 22:00,7.8,
27-Mar-2017 23:00,4,
28-Mar-2017 00:00,5.4,
28-Mar-2017 01:00,4.9,
28-Mar-2017 02:00,4.9,
28-Mar-2017 03:00,5.2,
28-Mar-2017 04:00,5,
28-Mar-2017 05:00,9.9,
28-Mar-2017 06:00,10.4,
28-Mar-2017 07:00,25.3,
28-Mar-2017 08:00,24.4,
28-Mar-2017 09:00,21,
28-Mar-2017 10:00,10.2,
28-Mar-2017 11:00,9.7,
28-Mar-2017 12:00,8.2,
28-Mar-2017 13:00,14.7,
28-Mar-2017 14:00,8.4,
28-Mar-2017 15:00,8,
28-Mar-2017 16:00,15.6,
28-Mar-2017 17:00,11.4,
28-Mar-2017 18:00,16.1,
28-Mar-2017 19:00,18.8,
28-Mar-2017 20:00,35.4,
28-Mar-2017 21:00,15.1,
28-Mar-2017 22:00,10.1,
28-Mar-2017 23:00,8.7,
29-Mar-2017 00:00,7.8,
29-Mar-2017 01:00,7.3,
29-Mar-2017 02:00,5.8,
29-Mar-2017 03:00,7.2,
29-Mar-2017 04:00,6.8,
29-Mar-2017 05:00,7.3,
29-Mar-2017 06:00,24.7,
29-Mar-2017 07:00,16.4,
29-Mar-2017 08:00,11.3,
29-Mar-2017 09:00,8.5,
29-Mar-2017 10:00,4.1,
29-Mar-2017 11:00,6,
29-Mar-2017 12:00,6.3,
29-Mar-2017 13:00,6.7,
29-Mar-2017 14:00,6.7,
29-Mar-2017 15:00,11.2,
29-Mar-2017 16:00,10.9,
29-Mar-2017 17:00,10.4,
29-Mar-2017 18:00,12.4,
29-Mar-2017 19:00,11.3,
29-Mar-2017 20:00,12,
29-Mar-2017 21:00,10.5,
29-Mar-2017 22:00,10.8,
29-Mar-2017 23:00,10.7,
30-Mar-2017 00:00,9.4,
30-Mar-2017 01:00,8.9,
30-Mar-2017 02:00,6.8,
30-Mar-2017 03:00,6.4,
30-Mar-2017 04:00,6.6,
30-Mar-2017 05:00,6.2,
30-Mar-2017 06:00,10.4,
30-Mar-2017 07:00,13.3,
30-Mar-2017 08:00,1.2,
30-Mar-2017 09:00,15.9,
30-Mar-2017 10:00,53.1,
30-Mar-2017 11:00,170.7,
30-Mar-2017 12:00,789.9,
30-Mar-2017 13:00,904,
30-Mar-2017 14:00,2072.4,
30-Mar-2017 15:00,857.3,
30-Mar-2017 16:00,115.2,
30-Mar-2017 17:00,69.2,
30-Mar-2017 18:00,30.3,
30-Mar-2017 19:00,16.1,
30-Mar-2017 20:00,9.2,
30-Mar-2017 21:00,11.2,
30-Mar-2017 22:00,-14.6,
30-Mar-2017 23:00,9.3,
31-Mar-2017 00:00,9.3,
31-Mar-2017 01:00,12.1,
31-Mar-2017 02:00,11.7,
31-Mar-2017 03:00,13.5,
31-Mar-2017 04:00,15.7,
31-Mar-2017 05:00,22.5,
31-Mar-2017 06:00,14.4,
31-Mar-2017 07:00,13.5,
31-Mar-2017 08:00,27.3,
31-Mar-2017 09:00,20.7,
31-Mar-2017 10:00,29.4,
31-Mar-2017 11:00,36,
31-Mar-2017 12:00,21,
31-Mar-2017 13:00,14.7,
31-Mar-2017 14:00,26.7,
31-Mar-2017 15:00,19,
31-Mar-2017 16:00,15.4,
31-Mar-2017 17:00,25.9,
31-Mar-2017 18:00,16.4,
31-Mar-2017 19:00,18.5,
31-Mar-2017 20:00,13.7,
31-Mar-2017 21:00,10.4,
31-Mar-2017 22:00,8.9,
31-Mar-2017 23:00,9.5,
